TimeEST,TemperatureF,Dew PointF,Humidity,Sea Level PressureIn,VisibilityMPH,Wind Direction,Wind SpeedMPH,Gust SpeedMPH,PrecipitationIn,Events,Conditions,WindDirDegrees,DateUTC
12:15 AM,66.2,62.6,88,30.21,10.0,SSW,3.5,-,N/A,,Scattered Clouds,210,2012-11-13 05:15:00
12:35 AM,66.2,62.6,88,30.20,10.0,Calm,Calm,-,N/A,,Mostly Cloudy,0,2012-11-13 05:35:00
12:55 AM,66.2,62.6,88,30.20,10.0,Calm,Calm,-,N/A,,Overcast,0,2012-11-13 05:55:00
1:15 AM,64.4,62.6,94,30.20,10.0,Calm,Calm,-,N/A,,Overcast,0,2012-11-13 06:15:00
1:35 AM,64.4,62.6,94,30.18,10.0,Calm,Calm,-,N/A,,Mostly Cloudy,0,2012-11-13 06:35:00
1:55 AM,62.6,62.6,100,30.17,10.0,Calm,Calm,-,N/A,,Partly Cloudy,0,2012-11-13 06:55:00
2:15 AM,62.6,62.6,100,30.16,10.0,SE,6.9,-,N/A,,Clear,140,2012-11-13 07:15:00
2:35 AM,62.6,62.6,100,30.17,10.0,SSE,5.8,-,N/A,,Clear,160,2012-11-13 07:35:00
2:55 AM,62.6,60.8,94,30.17,10.0,Calm,Calm,-,N/A,,Clear,0,2012-11-13 07:55:00
3:15 AM,60.8,59.0,94,30.17,7.0,Calm,Calm,-,N/A,,Clear,0,2012-11-13 08:15:00
3:35 AM,60.8,60.8,100,30.18,7.0,Calm,Calm,-,N/A,,Scattered Clouds,0,2012-11-13 08:35:00
3:55 AM,60.8,60.8,100,30.17,10.0,Calm,Calm,-,N/A,,Overcast,0,2012-11-13 08:55:00
4:15 AM,60.8,60.8,100,30.17,9.0,Calm,Calm,-,N/A,,Mostly Cloudy,0,2012-11-13 09:15:00
4:35 AM,62.6,60.8,94,30.18,10.0,Calm,Calm,-,N/A,,Overcast,0,2012-11-13 09:35:00
4:55 AM,62.6,60.8,94,30.18,9.0,Calm,Calm,-,N/A,,Overcast,0,2012-11-13 09:55:00
5:15 AM,60.8,60.8,100,30.18,9.0,Calm,Calm,-,N/A,,Overcast,0,2012-11-13 10:15:00
5:35 AM,62.6,60.8,94,30.18,10.0,Calm,Calm,-,N/A,,Mostly Cloudy,0,2012-11-13 10:35:00
5:50 AM,60.8,59.0,94,30.18,10.0,NW,4.6,-,N/A,,Scattered Clouds,320,2012-11-13 10:50:00
6:50 AM,60.8,59.0,94,30.19,10.0,Calm,Calm,-,N/A,,Mostly Cloudy,0,2012-11-13 11:50:00
7:45 AM,60.8,60.8,100,30.21,10.0,Calm,Calm,-,N/A,,Scattered Clouds,0,2012-11-13 12:45:00
8:45 AM,64.4,64.4,100,30.23,10.0,Calm,Calm,-,N/A,,Mostly Cloudy,0,2012-11-13 13:45:00
9:45 AM,68.0,64.4,88,30.24,10.0,SE,8.1,-,N/A,,Scattered Clouds,140,2012-11-13 14:45:00
10:45 AM,71.6,64.4,78,30.23,10.0,SE,9.2,-,N/A,,Scattered Clouds,140,2012-11-13 15:45:00
11:45 AM,71.6,64.4,78,30.21,10.0,ESE,9.2,-,N/A,,Mostly Cloudy,120,2012-11-13 16:45:00
12:47 PM,69.8,62.6,78,30.18,6.0,North,18.4,-,N/A,,Haze,360,2012-11-13 17:47:00
1:48 PM,66.2,57.2,73,30.19,10.0,NNW,13.8,-,N/A,,Overcast,340,2012-11-13 18:48:00
2:48 PM,62.6,55.4,77,30.19,10.0,NNE,17.3,-,N/A,,Mostly Cloudy,20,2012-11-13 19:48:00
4:45 PM,59.0,51.8,77,30.23,10.0,NNE,17.3,-,N/A,,Overcast,30,2012-11-13 21:45:00
5:50 PM,57.2,50.0,77,30.23,10.0,North,15.0,-,N/A,,Overcast,360,2012-11-13 22:50:00
6:50 PM,55.4,51.8,88,30.25,10.0,NNE,11.5,-,N/A,,Overcast,20,2012-11-13 23:50:00
7:45 PM,55.4,51.8,88,30.28,10.0,NNE,12.7,21.9,N/A,,Overcast,30,2012-11-14 00:45:00
10:55 PM,50.0,48.2,94,30.31,10.0,North,12.7,21.9,N/A,,Overcast,10,2012-11-14 03:55:00
11:15 PM,48.2,46.4,93,30.31,10.0,North,17.3,24.2,N/A,,Overcast,10,2012-11-14 04:15:00
11:35 PM,48.2,46.4,93,30.32,10.0,North,11.5,-,N/A,,Overcast,360,2012-11-14 04:35:00
11:55 PM,46.4,44.6,93,30.32,10.0,North,16.1,20.7,N/A,,Overcast,350,2012-11-14 04:55:00